{"data":{"norad_id":64475,"epoch":"2026-05-25T04:36:30.634272Z","epoch_age_seconds":58158,"freshness":"FRESH","line1":"1 64475U 25133D   26145.19202123  .00021545  00000+0  62655-3 0  9991","line2":"2 64475  53.1605 119.1561 0000715  72.9715 287.1366 15.35411245 52917","mean_motion":15.35411245,"eccentricity":7.15e-5,"inclination_deg":53.1605,"raan_deg":119.1561,"arg_perigee_deg":72.9715,"mean_anomaly_deg":287.1366,"bstar":0.00062655,"rev_number":5291,"period_min":93.785948532636,"perigee_km":459.21035141476,"apogee_km":460.18816199947,"semimajor_km":6837.8362567071,"source":"CELESTRAK","updated_at":"2026-05-25T13:38:20.456504Z"}}